Weather in Gedzhukh

Russia / Republic of Dagestan     42°07′34″N   48°03′54″E
temp.,
°C
wind,
m/s
gust,
m/s
humid.,
%
clouds,
%
prec.,
mm/h
press.,
hPa
HPBL,
m
11 may, tue
tue1100:00+9wsw226144 0.0 102136
03:00+8wsw22625 0.0 102031
06:00+10ssw12554 0.0 102098
09:00+15se69375 0.0 10181588
12:00+16ese784312 0.0 10171484
15:00+15ese66487 0.0 10161119
18:00+13ese34610 0.0 1016434
21:00+9wsw11770 0.0 101718
12 may, wed
wed1200:00+9w11760 0.0 101518
03:00+9w22740 0.0 101528
06:00+11w12640 0.0 1015103
09:00+16n44520 0.0 1015802
12:00+18nne55490 0.0 1015917
15:00+18nne44540 0.0 1015763
18:00+15nne23700 0.0 1015264
21:00+12w11860 0.0 101625
13 may, thu
thu1300:00+12sw11840 0.0 101511
03:00+11s11820 0.0 101412
06:00+14s11750 0.0 101571
09:00+20e33560 0.0 1014568
12:00+22e43500 0.0 1014660
15:00+22e43500 0.0 1014522
18:00+18e22620 0.0 1014138
21:00+15se11775 0.0 101525
14 may, fri
fri1400:00+15sse11820 0.0 101415
03:00+15s11791 0.0 101412
06:00+18sse11635 0.0 101443
09:00+24e34485 0.0 1014433
12:00+27e573830 0.0 1013704
15:00+28ese610365 0.0 1013840
18:00+23ese345161 0.0 1013101
21:00+18s0162100 0.0 101430
15 may, sat
sat1500:00+17sse016491 0.0 101313
03:00+17s115895 0.0 101314
06:00+20ssw11541 0.0 101321
09:00+26e35320 0.0 1013565
12:00+29ese68230 0.0 1013993
15:00+28ese69200 0.0 1012890
18:00+23ese233772 0.0 101355
21:00+19wsw2239100 0.0 101413